Lid_Strength_Index
2 2 3 3 4 5 6 6 6 7 7 7 7 7 7 9 9 10 10 11 12 13
3 3 3 3 3 4 5 5 6 7 7 7 7 8 8 8 11 11 11 12 12 13
2 3 3 4 4 4 4 6 7 10 11 11 11 10 10 11 12 12 13 12 13 13
8 3 3 3 5 8 11 10 10 11 12 12 12 12 11 11 11 11 12 13 13 13
9 8 8 7 9 9 8 10 10 11 11 11 12 12 11 12 12 11 12 13 13 13
10 10 10 10 10 9 9 9 10 9 10 10 12 12 11 12 12 12 12 13 13 14
10 10 11 11 11 10 10 10 9 9 9 10 12 12 12 12 13 13 13 13 13 13
10 10 10 10 11 11 11 11 11 11 11 12 12 12 12 12 12 13 13 13 14 14
12 11 11 11 11 11 11 11 11 11 12 12 12 10 10 11 12 12 13 13 13 14
13 13 12 12 11 11 11 11 11 11 11 11 11 10 10 11 12 12 13 13 14 14
14 13 13 13 13 12 12 12 12 11 11 11 11 9 9 10 11 12 12 13 13 14
16 16 14 14 14 13 13 13 13 12 12 11 11 8 8 10 11 12 12 13 13 13
17 17 17 16 15 14 13 13 13 13 12 12 11 9 8 10 11 12 13 13 13 13
17 17 17 17 16 16 15 14 15 14 14 13 12 10 8 9 11 12 12 13 13 13